FDX9T YBAS-YPPH

Flight info

Callsign FDX9T
Flight time 2h 46m
Altitude 38000
Route AS W408 AYE Q41 MALUP Q158 PH
Aircraft B77L/H-SDE1E2E3FGHIJ2J3J4J5M1RWXY/LB1D1

Departure

Time 2026-04-20 17:16
Airport Alice Springs Airport (YBAS)

Arrival

Time 2026-04-20 20:03
Airport Perth International Airport (YPPH)
Time Latitude Longitude Altitude Speed Heading
2026-04-20 16:43 -23.80368 133.90275 1787 ft 0 kts 70°
2026-04-20 17:04 -23.80370 133.90268 1786 ft 4 kts 67°
2026-04-20 17:05 -23.80384 133.90243 1784 ft 4 kts 43°
2026-04-20 17:05 -23.80406 133.90227 1786 ft 4 kts 24°
2026-04-20 17:05 -23.80411 133.90224 1785 ft 3 kts 24°
2026-04-20 17:10 -23.80409 133.90227 1787 ft 2 kts 39°
2026-04-20 17:10 -23.80415 133.90305 1787 ft 11 kts 116°
2026-04-20 17:11 -23.80456 133.90362 1787 ft 6 kts 129°
2026-04-20 17:11 -23.80491 133.90375 1787 ft 6 kts 180°
2026-04-20 17:11 -23.80529 133.90359 1787 ft 6 kts 206°
2026-04-20 17:11 -23.80565 133.90338 1787 ft 6 kts 207°
2026-04-20 17:12 -23.80602 133.90319 1787 ft 6 kts 198°
2026-04-20 17:12 -23.80637 133.90342 1787 ft 7 kts 135°
2026-04-20 17:12 -23.80682 133.90413 1787 ft 16 kts 121°
2026-04-20 17:12 -23.80752 133.90548 1786 ft 24 kts 120°
2026-04-20 17:13 -23.80839 133.90710 1784 ft 25 kts 120°
2026-04-20 17:13 -23.80927 133.90872 1785 ft 25 kts 121°
2026-04-20 17:13 -23.81015 133.91034 1785 ft 25 kts 121°
2026-04-20 17:13 -23.81102 133.91193 1788 ft 20 kts 120°
2026-04-20 17:14 -23.81147 133.91281 1785 ft 12 kts 114°
2026-04-20 17:14 -23.81166 133.91370 1785 ft 9 kts 129°
2026-04-20 17:14 -23.81182 133.91354 1785 ft 4 kts 276°
2026-04-20 17:14 -23.81173 133.91331 1786 ft 0 kts 295°
2026-04-20 17:15 -23.81165 133.91312 1785 ft 17 kts 295°
2026-04-20 17:15 -23.80953 133.90923 1785 ft 101 kts 299°
2026-04-20 17:16 -23.80465 133.90012 1788 ft 173 kts 300°
2026-04-20 17:16 -23.79768 133.88764 2155 ft 195 kts 300°
2026-04-20 17:16 -23.79354 133.87362 2863 ft 202 kts 267°
2026-04-20 17:16 -23.79759 133.85932 3508 ft 206 kts 233°
2026-04-20 17:17 -23.80595 133.84638 4130 ft 211 kts 227°
2026-04-20 17:17 -23.81522 133.83374 4786 ft 215 kts 226°
2026-04-20 17:17 -23.82436 133.82037 5362 ft 222 kts 229°
2026-04-20 17:17 -23.83344 133.80672 6003 ft 224 kts 229°
2026-04-20 17:18 -23.84277 133.79258 6491 ft 235 kts 230°
2026-04-20 17:18 -23.85247 133.77772 7004 ft 243 kts 230°
2026-04-20 17:18 -23.86206 133.76242 7681 ft 244 kts 233°
2026-04-20 17:18 -23.87149 133.74696 8359 ft 246 kts 234°
2026-04-20 17:19 -23.88094 133.73123 9079 ft 249 kts 236°
2026-04-20 17:19 -23.89046 133.71516 9703 ft 259 kts 237°
2026-04-20 17:19 -23.90064 133.69771 9938 ft 286 kts 238°
2026-04-20 17:19 -23.91146 133.67887 10521 ft 294 kts 238°
2026-04-20 17:20 -23.92266 133.65984 11198 ft 307 kts 236°
2026-04-20 17:20 -23.93511 133.63962 11412 ft 335 kts 236°
2026-04-20 17:20 -23.94854 133.61751 11623 ft 362 kts 236°
2026-04-20 17:20 -23.96280 133.59372 11945 ft 384 kts 237°
2026-04-20 17:21 -23.97757 133.56891 12634 ft 394 kts 237°
2026-04-20 17:21 -23.99256 133.54364 13492 ft 398 kts 237°
2026-04-20 17:21 -24.00761 133.51823 14437 ft 398 kts 237°
2026-04-20 17:21 -24.02247 133.49311 15300 ft 398 kts 237°
2026-04-20 17:22 -24.03760 133.46753 16069 ft 402 kts 237°
2026-04-20 17:22 -24.05287 133.44171 16788 ft 407 kts 237°
2026-04-20 17:22 -24.06832 133.41557 17469 ft 411 kts 237°
2026-04-20 17:22 -24.08390 133.38918 18177 ft 415 kts 237°
2026-04-20 17:23 -24.09962 133.36256 18848 ft 417 kts 237°
2026-04-20 17:23 -24.11542 133.33580 19457 ft 420 kts 237°
2026-04-20 17:23 -24.13132 133.30888 20079 ft 422 kts 237°
2026-04-20 17:23 -24.14734 133.28181 20687 ft 424 kts 237°
2026-04-20 17:24 -24.16344 133.25462 21286 ft 427 kts 237°
2026-04-20 17:24 -24.17964 133.22725 21856 ft 430 kts 237°
2026-04-20 17:24 -24.19594 133.19968 22441 ft 433 kts 237°
2026-04-20 17:24 -24.21234 133.17191 23004 ft 435 kts 237°
2026-04-20 17:25 -24.22883 133.14397 23568 ft 438 kts 237°
2026-04-20 17:25 -24.24540 133.11588 24061 ft 440 kts 237°
2026-04-20 17:25 -24.26207 133.08760 24545 ft 442 kts 237°
2026-04-20 17:25 -24.27877 133.05926 25068 ft 443 kts 237°
2026-04-20 17:26 -24.29547 133.03090 25555 ft 444 kts 237°
2026-04-20 17:26 -24.31222 133.00244 26039 ft 445 kts 237°
2026-04-20 17:26 -24.32902 132.97386 26506 ft 447 kts 237°
2026-04-20 17:26 -24.34588 132.94518 26972 ft 448 kts 237°
2026-04-20 17:27 -24.36279 132.91640 27453 ft 450 kts 237°
2026-04-20 17:27 -24.37976 132.88749 27918 ft 451 kts 237°
2026-04-20 17:27 -24.39680 132.85845 28380 ft 453 kts 237°
2026-04-20 17:27 -24.41388 132.82933 28822 ft 454 kts 237°
2026-04-20 17:28 -24.43100 132.80011 29241 ft 456 kts 237°
2026-04-20 17:28 -24.44796 132.77115 29629 ft 458 kts 237°
2026-04-20 17:28 -24.46523 132.74164 30019 ft 459 kts 237°
2026-04-20 17:28 -24.48249 132.71215 30470 ft 459 kts 237°
2026-04-20 17:29 -24.49968 132.68274 30966 ft 456 kts 237°
2026-04-20 17:29 -24.51676 132.65350 31475 ft 453 kts 238°
2026-04-20 17:29 -24.53373 132.62444 31974 ft 451 kts 238°
2026-04-20 17:29 -24.55064 132.59545 32403 ft 450 kts 238°
2026-04-20 17:30 -24.56754 132.56648 32801 ft 450 kts 238°
2026-04-20 17:30 -24.58444 132.53749 33239 ft 449 kts 238°
2026-04-20 17:30 -24.60096 132.50843 33666 ft 448 kts 240°
2026-04-20 17:30 -24.61550 132.47824 34077 ft 446 kts 245°
2026-04-20 17:31 -24.62752 132.44683 34433 ft 445 kts 248°
2026-04-20 17:31 -24.63919 132.41531 34814 ft 443 kts 248°
2026-04-20 17:31 -24.65083 132.38405 35206 ft 441 kts 248°
2026-04-20 17:31 -24.66245 132.35294 35583 ft 439 kts 248°
2026-04-20 17:32 -24.67390 132.32239 35943 ft 437 kts 248°
2026-04-20 17:32 -24.68549 132.29155 36218 ft 437 kts 248°
2026-04-20 17:32 -24.69717 132.26045 36183 ft 440 kts 248°
2026-04-20 17:33 -24.72051 132.19832 36180 ft 437 kts 248°
2026-04-20 17:33 -24.74361 132.13677 36186 ft 433 kts 248°
2026-04-20 17:34 -24.76650 132.07566 36186 ft 431 kts 248°
2026-04-20 17:34 -24.78931 132.01466 36182 ft 431 kts 248°
2026-04-20 17:35 -24.81210 131.95362 36183 ft 432 kts 248°
2026-04-20 17:35 -24.83494 131.89237 36185 ft 433 kts 248°
2026-04-20 17:36 -24.85781 131.83094 36182 ft 434 kts 248°
2026-04-20 17:36 -24.88072 131.76932 36191 ft 435 kts 249°
2026-04-20 17:37 -24.90370 131.70743 36182 ft 437 kts 249°
2026-04-20 17:37 -24.92653 131.64583 36183 ft 437 kts 249°
2026-04-20 17:38 -24.94950 131.58379 36177 ft 438 kts 249°
2026-04-20 17:38 -24.97251 131.52154 36177 ft 437 kts 249°
2026-04-20 17:39 -24.99542 131.45944 36180 ft 437 kts 249°
2026-04-20 17:39 -25.01829 131.39739 36177 ft 437 kts 249°
2026-04-20 17:40 -25.04110 131.33538 36178 ft 436 kts 249°
2026-04-20 17:40 -25.06386 131.27343 36181 ft 435 kts 249°
2026-04-20 17:41 -25.08656 131.21153 36180 ft 435 kts 249°
2026-04-20 17:41 -25.10924 131.14962 36176 ft 435 kts 249°
2026-04-20 17:42 -25.13186 131.08777 36182 ft 435 kts 249°
2026-04-20 17:42 -25.15432 131.02628 36181 ft 434 kts 249°
2026-04-20 17:43 -25.18046 130.96617 36188 ft 436 kts 242°
2026-04-20 17:43 -25.21452 130.91061 36188 ft 438 kts 237°
2026-04-20 17:44 -25.25041 130.85628 36179 ft 438 kts 237°
2026-04-20 17:44 -25.28619 130.80190 36188 ft 438 kts 237°
2026-04-20 17:45 -25.32188 130.74734 36185 ft 438 kts 237°
2026-04-20 17:45 -25.35756 130.69262 36189 ft 438 kts 237°
2026-04-20 17:46 -25.39291 130.63832 36186 ft 438 kts 237°
2026-04-20 17:46 -25.42852 130.58356 36185 ft 438 kts 237°
2026-04-20 17:47 -25.46416 130.52870 36180 ft 439 kts 237°
2026-04-20 17:47 -25.49977 130.47383 36195 ft 438 kts 237°
2026-04-20 17:48 -25.53530 130.41902 36184 ft 438 kts 238°
2026-04-20 17:48 -25.57081 130.36416 36181 ft 437 kts 238°
2026-04-20 17:49 -25.60602 130.30971 36178 ft 437 kts 238°
2026-04-20 17:49 -25.64140 130.25493 36183 ft 436 kts 238°
2026-04-20 17:50 -25.67667 130.20024 36181 ft 436 kts 238°
2026-04-20 17:50 -25.71194 130.14550 36181 ft 436 kts 238°
2026-04-20 17:51 -25.74719 130.09074 36177 ft 436 kts 238°
2026-04-20 17:51 -25.78215 130.03636 36175 ft 435 kts 238°
2026-04-20 17:52 -25.81731 129.98160 36177 ft 436 kts 238°
2026-04-20 17:52 -25.85247 129.92677 36170 ft 436 kts 238°
2026-04-20 17:53 -25.88765 129.87186 36173 ft 436 kts 238°
2026-04-20 17:53 -25.92256 129.81730 36165 ft 436 kts 238°
2026-04-20 17:54 -25.95772 129.76228 36165 ft 436 kts 238°
2026-04-20 17:54 -25.99289 129.70718 36173 ft 436 kts 239°
2026-04-20 17:55 -26.02799 129.65212 36155 ft 436 kts 239°
2026-04-20 17:55 -26.06312 129.59696 36151 ft 436 kts 239°
2026-04-20 17:56 -26.09795 129.54219 36153 ft 436 kts 239°
2026-04-20 17:56 -26.13293 129.48714 36146 ft 435 kts 239°
2026-04-20 17:57 -26.16786 129.43207 36144 ft 435 kts 239°
2026-04-20 17:57 -26.20271 129.37709 36145 ft 435 kts 239°
2026-04-20 17:58 -26.23754 129.32206 36153 ft 434 kts 239°
2026-04-20 17:58 -26.27240 129.26692 36142 ft 434 kts 239°
2026-04-20 17:59 -26.30716 129.21186 36138 ft 434 kts 239°
2026-04-20 17:59 -26.33603 129.16608 36129 ft 434 kts 239°
2026-04-20 18:00 -26.37636 129.10206 36134 ft 434 kts 239°
2026-04-20 18:00 -26.40522 129.05620 36133 ft 434 kts 239°
2026-04-20 18:01 -26.43988 129.00112 36136 ft 434 kts 239°
2026-04-20 18:01 -26.47459 128.94588 36142 ft 434 kts 240°
2026-04-20 18:02 -26.50919 128.89073 36132 ft 433 kts 240°
2026-04-20 18:02 -26.54379 128.83552 36122 ft 433 kts 240°
2026-04-20 18:03 -26.57810 128.78069 36121 ft 433 kts 240°
2026-04-20 18:03 -26.61264 128.72544 36115 ft 433 kts 240°
2026-04-20 18:04 -26.64706 128.67029 36121 ft 432 kts 240°
2026-04-20 18:04 -26.68147 128.61511 36120 ft 432 kts 240°
2026-04-20 18:05 -26.73303 128.53229 36117 ft 432 kts 240°
2026-04-20 18:05 -26.76714 128.47741 36115 ft 432 kts 240°
2026-04-20 18:06 -26.80165 128.42182 36115 ft 432 kts 240°
2026-04-20 18:06 -26.83567 128.36697 36107 ft 432 kts 240°
2026-04-20 18:07 -26.86992 128.31166 36109 ft 432 kts 240°
2026-04-20 18:07 -26.90414 128.25634 36104 ft 432 kts 240°
2026-04-20 18:08 -26.93837 128.20094 36101 ft 432 kts 240°
2026-04-20 18:08 -26.97256 128.14553 36111 ft 432 kts 241°
2026-04-20 18:09 -27.00670 128.09013 36098 ft 432 kts 241°
2026-04-20 18:09 -27.04083 128.03469 36097 ft 432 kts 241°
2026-04-20 18:10 -27.07487 127.97931 36090 ft 431 kts 241°
2026-04-20 18:10 -27.10890 127.92389 36099 ft 431 kts 241°
2026-04-20 18:11 -27.14267 127.86882 36092 ft 431 kts 241°
2026-04-20 18:11 -27.17662 127.81338 36087 ft 430 kts 241°
2026-04-20 18:12 -27.21056 127.75790 36086 ft 430 kts 241°
2026-04-20 18:12 -27.24441 127.70250 36085 ft 430 kts 242°
2026-04-20 18:13 -27.27826 127.64700 36079 ft 430 kts 242°
2026-04-20 18:13 -27.31210 127.59147 36077 ft 430 kts 242°
2026-04-20 18:14 -27.34589 127.53595 36075 ft 430 kts 242°
2026-04-20 18:14 -27.37949 127.48067 36080 ft 430 kts 242°
2026-04-20 18:15 -27.41326 127.42504 36078 ft 431 kts 242°
2026-04-20 18:15 -27.44703 127.36934 36078 ft 431 kts 242°
2026-04-20 18:16 -27.48083 127.31351 36073 ft 431 kts 242°
2026-04-20 18:16 -27.51457 127.25772 36073 ft 431 kts 242°
2026-04-20 18:17 -27.54835 127.20180 36073 ft 431 kts 242°
2026-04-20 18:17 -27.58204 127.14595 36071 ft 431 kts 242°
2026-04-20 18:18 -27.61572 127.09004 36064 ft 431 kts 242°
2026-04-20 18:18 -27.64932 127.03418 36067 ft 430 kts 242°
2026-04-20 18:19 -27.68293 126.97823 36077 ft 430 kts 243°
2026-04-20 18:19 -27.71648 126.92229 36064 ft 430 kts 243°
2026-04-20 18:20 -27.75002 126.86630 36056 ft 431 kts 243°
2026-04-20 18:20 -27.78332 126.81065 36057 ft 430 kts 243°
2026-04-20 18:21 -27.81679 126.75464 36059 ft 430 kts 243°
2026-04-20 18:21 -27.85027 126.69854 36052 ft 430 kts 243°
2026-04-20 18:22 -27.88372 126.64242 36047 ft 430 kts 243°
2026-04-20 18:22 -27.91713 126.58629 36048 ft 430 kts 243°
2026-04-20 18:23 -27.95052 126.53012 36043 ft 430 kts 243°
2026-04-20 18:23 -27.98391 126.47388 36049 ft 430 kts 243°
2026-04-20 18:24 -28.01707 126.41794 36036 ft 430 kts 243°
2026-04-20 18:24 -28.05061 126.36132 36040 ft 430 kts 244°
2026-04-20 18:25 -28.08390 126.30502 36029 ft 430 kts 244°
2026-04-20 18:25 -28.11695 126.24906 36037 ft 430 kts 244°
2026-04-20 18:26 -28.15023 126.19263 36028 ft 430 kts 244°
2026-04-20 18:26 -28.18345 126.13623 36027 ft 430 kts 244°
2026-04-20 18:27 -28.21666 126.07979 36028 ft 430 kts 244°
2026-04-20 18:27 -28.24990 126.02321 36025 ft 430 kts 244°
2026-04-20 18:28 -28.28305 125.96671 36023 ft 430 kts 244°
2026-04-20 18:28 -28.31600 125.91048 36018 ft 430 kts 244°
2026-04-20 18:29 -28.34930 125.85357 36014 ft 430 kts 244°
2026-04-20 18:29 -28.38214 125.79737 36018 ft 430 kts 244°
2026-04-20 18:30 -28.41514 125.74083 36036 ft 430 kts 244°
2026-04-20 18:30 -28.44814 125.68420 36013 ft 430 kts 244°
2026-04-20 18:31 -28.48111 125.62758 36001 ft 429 kts 244°
2026-04-20 18:31 -28.51399 125.57101 36002 ft 429 kts 244°
2026-04-20 18:32 -28.54683 125.51443 36000 ft 428 kts 244°
2026-04-20 18:32 -28.57968 125.45778 36009 ft 428 kts 245°
2026-04-20 18:33 -28.61242 125.40122 35992 ft 428 kts 245°
2026-04-20 18:33 -28.64510 125.34470 35987 ft 427 kts 245°
2026-04-20 18:34 -28.67774 125.28817 35987 ft 427 kts 245°
2026-04-20 18:34 -28.71030 125.23171 36006 ft 426 kts 245°
2026-04-20 18:35 -28.74259 125.17562 35992 ft 426 kts 245°
2026-04-20 18:35 -28.77507 125.11915 35986 ft 426 kts 245°
2026-04-20 18:36 -28.80751 125.06266 35985 ft 426 kts 245°
2026-04-20 18:36 -28.83989 125.00619 35970 ft 426 kts 245°
2026-04-20 18:37 -28.87231 124.94958 35972 ft 426 kts 245°
2026-04-20 18:37 -28.90468 124.89298 35976 ft 426 kts 245°
2026-04-20 18:38 -28.93708 124.83626 35976 ft 427 kts 246°
2026-04-20 18:38 -28.96945 124.77950 35975 ft 426 kts 246°
2026-04-20 18:39 -29.00183 124.72267 35989 ft 426 kts 246°
2026-04-20 18:39 -29.03395 124.66622 35966 ft 426 kts 246°
2026-04-20 18:40 -29.06620 124.60948 35954 ft 425 kts 246°
2026-04-20 18:40 -29.09832 124.55285 35958 ft 424 kts 246°
2026-04-20 18:41 -29.13043 124.49617 35955 ft 424 kts 246°
2026-04-20 18:41 -29.16241 124.43963 35966 ft 423 kts 246°
2026-04-20 18:42 -29.19433 124.38312 35945 ft 423 kts 246°
2026-04-20 18:42 -29.22624 124.32654 35942 ft 422 kts 246°
2026-04-20 18:43 -29.25799 124.27020 35933 ft 421 kts 246°
2026-04-20 18:43 -29.28969 124.21384 35969 ft 421 kts 246°
2026-04-20 18:44 -29.32117 124.15779 35950 ft 421 kts 247°
2026-04-20 18:44 -29.35286 124.10131 35937 ft 421 kts 247°
2026-04-20 18:45 -29.38450 124.04483 35936 ft 420 kts 247°
2026-04-20 18:45 -29.41606 123.98841 35960 ft 420 kts 247°
2026-04-20 18:46 -29.44762 123.93193 35939 ft 421 kts 248°
2026-04-20 18:46 -29.47913 123.87547 35933 ft 419 kts 248°
2026-04-20 18:47 -29.51052 123.81914 35922 ft 419 kts 248°
2026-04-20 18:47 -29.54171 123.76309 35922 ft 418 kts 248°
2026-04-20 18:48 -29.56786 123.71602 35920 ft 417 kts 248°
2026-04-20 18:48 -29.60414 123.65064 35923 ft 417 kts 248°
2026-04-20 18:49 -29.63532 123.59437 35916 ft 417 kts 248°
2026-04-20 18:49 -29.66650 123.53801 35916 ft 418 kts 248°
2026-04-20 18:50 -29.69240 123.49113 35911 ft 418 kts 248°
2026-04-20 18:50 -29.72361 123.43459 35912 ft 418 kts 248°
2026-04-20 18:51 -29.75479 123.37802 35912 ft 419 kts 248°
2026-04-20 18:51 -29.78599 123.32133 35910 ft 419 kts 248°
2026-04-20 18:52 -29.81715 123.26465 35914 ft 419 kts 248°
2026-04-20 18:52 -29.84813 123.20822 35914 ft 419 kts 248°
2026-04-20 18:53 -29.87926 123.15141 35931 ft 419 kts 248°
2026-04-20 18:53 -29.91040 123.09452 35924 ft 420 kts 248°
2026-04-20 18:54 -29.94160 123.03741 35921 ft 421 kts 249°
2026-04-20 18:54 -29.97282 122.98022 35911 ft 421 kts 249°
2026-04-20 18:55 -30.00402 122.92298 35914 ft 421 kts 249°
2026-04-20 18:55 -30.03524 122.86564 35925 ft 422 kts 249°
2026-04-20 18:56 -30.06634 122.80843 35912 ft 420 kts 249°
2026-04-20 18:56 -30.09733 122.75135 35903 ft 419 kts 249°
2026-04-20 18:57 -30.12796 122.69483 35905 ft 417 kts 249°
2026-04-20 18:57 -30.15867 122.63808 35907 ft 416 kts 249°
2026-04-20 18:58 -30.18926 122.58146 35913 ft 415 kts 249°
2026-04-20 18:58 -30.21976 122.52494 35904 ft 414 kts 249°
2026-04-20 18:59 -30.25014 122.46857 35905 ft 412 kts 250°
2026-04-20 18:59 -30.28043 122.41227 35904 ft 412 kts 250°
2026-04-20 19:00 -30.31066 122.35599 35907 ft 411 kts 250°
2026-04-20 19:00 -30.34085 122.29972 35916 ft 412 kts 250°
2026-04-20 19:01 -30.37109 122.24327 35905 ft 413 kts 250°
2026-04-20 19:01 -30.40115 122.18708 35899 ft 413 kts 250°
2026-04-20 19:02 -30.43142 122.13042 35919 ft 414 kts 250°
2026-04-20 19:02 -30.46173 122.07359 35937 ft 415 kts 250°
2026-04-20 19:03 -30.49208 122.01665 35920 ft 415 kts 251°
2026-04-20 19:03 -30.52238 121.95971 35913 ft 414 kts 251°
2026-04-20 19:04 -30.55259 121.90286 35918 ft 414 kts 251°
2026-04-20 19:04 -30.58275 121.84601 35920 ft 413 kts 251°
2026-04-20 19:05 -30.61282 121.78923 35965 ft 413 kts 251°
2026-04-20 19:05 -30.64286 121.73243 35935 ft 412 kts 251°
2026-04-20 19:06 -30.67257 121.67619 35932 ft 411 kts 251°
2026-04-20 19:06 -30.70243 121.61957 35935 ft 410 kts 251°
2026-04-20 19:07 -30.73217 121.56310 35938 ft 409 kts 251°
2026-04-20 19:07 -30.76183 121.50668 35985 ft 409 kts 251°
2026-04-20 19:08 -30.80639 121.42189 35944 ft 410 kts 251°
2026-04-20 19:09 -30.83618 121.36540 35937 ft 409 kts 251°
2026-04-20 19:09 -30.86592 121.30894 35936 ft 409 kts 251°
2026-04-20 19:10 -30.89562 121.25244 35934 ft 409 kts 251°
2026-04-20 19:10 -30.92531 121.19581 35948 ft 411 kts 251°
2026-04-20 19:11 -30.95508 121.13898 35935 ft 411 kts 251°
2026-04-20 19:11 -30.98485 121.08208 35931 ft 411 kts 251°
2026-04-20 19:12 -31.01460 121.02514 35932 ft 411 kts 251°
2026-04-20 19:12 -31.04430 120.96820 35928 ft 411 kts 251°
2026-04-20 19:13 -31.07400 120.91117 35938 ft 412 kts 250°
2026-04-20 19:13 -31.10372 120.85404 35931 ft 412 kts 250°
2026-04-20 19:14 -31.13341 120.79685 35929 ft 412 kts 250°
2026-04-20 19:14 -31.16309 120.73963 35929 ft 412 kts 250°
2026-04-20 19:15 -31.19275 120.68234 35932 ft 413 kts 250°
2026-04-20 19:15 -31.22228 120.62520 35925 ft 413 kts 250°
2026-04-20 19:16 -31.25198 120.56766 35920 ft 413 kts 250°
2026-04-20 19:16 -31.28163 120.51015 35917 ft 413 kts 250°
2026-04-20 19:17 -31.31065 120.45247 35934 ft 408 kts 253°
2026-04-20 19:17 -31.33389 120.39271 35962 ft 403 kts 257°
2026-04-20 19:18 -31.35654 120.33265 35933 ft 404 kts 256°
2026-04-20 19:18 -31.37935 120.27237 35921 ft 404 kts 256°
2026-04-20 19:19 -31.40210 120.21226 35929 ft 404 kts 256°
2026-04-20 19:19 -31.42471 120.15241 35920 ft 404 kts 256°
2026-04-20 19:20 -31.44744 120.09215 35949 ft 405 kts 256°
2026-04-20 19:20 -31.47016 120.03179 35919 ft 404 kts 256°
2026-04-20 19:21 -31.49280 119.97156 35914 ft 403 kts 256°
2026-04-20 19:21 -31.51537 119.91141 35919 ft 403 kts 256°
2026-04-20 19:22 -31.53784 119.85138 35919 ft 402 kts 256°
2026-04-20 19:22 -31.56034 119.79117 35923 ft 403 kts 257°
2026-04-20 19:23 -31.58277 119.73107 35914 ft 402 kts 257°
2026-04-20 19:23 -31.60518 119.67100 35917 ft 402 kts 257°
2026-04-20 19:24 -31.62758 119.61091 35919 ft 402 kts 257°
2026-04-20 19:24 -31.64993 119.55083 35913 ft 402 kts 257°
2026-04-20 19:25 -31.67225 119.49070 35924 ft 402 kts 257°
2026-04-20 19:25 -31.69458 119.43045 35921 ft 402 kts 257°
2026-04-20 19:26 -31.71688 119.37017 35915 ft 402 kts 257°
2026-04-20 19:26 -31.73898 119.31034 35905 ft 402 kts 257°
2026-04-20 19:27 -31.76133 119.24970 35914 ft 402 kts 257°
2026-04-20 19:27 -31.78352 119.18938 35917 ft 402 kts 257°
2026-04-20 19:28 -31.80569 119.12905 35911 ft 402 kts 257°
2026-04-20 19:28 -31.82766 119.06915 35908 ft 402 kts 257°
2026-04-20 19:29 -31.84976 119.00875 35913 ft 402 kts 257°
2026-04-20 19:29 -31.87180 118.94838 35968 ft 401 kts 257°
2026-04-20 19:30 -31.89376 118.88810 35926 ft 402 kts 257°
2026-04-20 19:30 -31.91577 118.82761 35915 ft 401 kts 257°
2026-04-20 19:31 -31.93771 118.76723 35921 ft 400 kts 257°
2026-04-20 19:31 -31.95957 118.70692 35923 ft 400 kts 257°
2026-04-20 19:32 -31.98139 118.64662 35955 ft 400 kts 257°
2026-04-20 19:32 -32.00318 118.58626 35929 ft 400 kts 257°
2026-04-20 19:33 -32.02494 118.52592 35930 ft 400 kts 257°
2026-04-20 19:33 -32.04649 118.46606 35930 ft 399 kts 257°
2026-04-20 19:34 -32.06814 118.40581 35931 ft 399 kts 257°
2026-04-20 19:34 -32.09088 118.34586 35944 ft 402 kts 255°
2026-04-20 19:35 -32.11506 118.28609 35938 ft 403 kts 255°
2026-04-20 19:35 -32.13910 118.22641 35937 ft 403 kts 255°
2026-04-20 19:36 -32.16293 118.16660 35943 ft 403 kts 255°
2026-04-20 19:36 -32.18659 118.10691 35947 ft 405 kts 255°
2026-04-20 19:37 -32.21055 118.04633 35965 ft 405 kts 255°
2026-04-20 19:37 -32.23425 117.98636 35956 ft 405 kts 255°
2026-04-20 19:38 -32.25803 117.92604 35941 ft 405 kts 255°
2026-04-20 19:38 -32.27777 117.87594 35940 ft 404 kts 255°
2026-04-20 19:39 -32.30145 117.81568 35945 ft 402 kts 255°
2026-04-20 19:39 -32.32460 117.75687 35504 ft 389 kts 256°
2026-04-20 19:39 -32.33597 117.72782 34928 ft 387 kts 256°
2026-04-20 19:40 -32.34650 117.69870 34199 ft 380 kts 262°
2026-04-20 19:40 -32.35154 117.66847 33377 ft 372 kts 271°
2026-04-20 19:40 -32.35295 117.63784 32497 ft 377 kts 275°
2026-04-20 19:40 -32.35188 117.60640 31575 ft 386 kts 281°
2026-04-20 19:41 -32.34580 117.57545 30776 ft 387 kts 288°
2026-04-20 19:41 -32.33823 117.54506 30048 ft 384 kts 288°
2026-04-20 19:41 -32.33067 117.51493 29245 ft 380 kts 288°
2026-04-20 19:41 -32.32326 117.48514 28462 ft 375 kts 288°
2026-04-20 19:42 -32.31610 117.45609 27873 ft 370 kts 287°
2026-04-20 19:42 -32.30899 117.42700 27189 ft 366 kts 287°
2026-04-20 19:42 -32.30199 117.39823 26544 ft 363 kts 287°
2026-04-20 19:42 -32.29509 117.36974 25913 ft 359 kts 286°
2026-04-20 19:43 -32.29046 117.35062 25503 ft 357 kts 286°
2026-04-20 19:43 -32.28145 117.31345 24692 ft 353 kts 286°
2026-04-20 19:43 -32.27473 117.28570 24104 ft 350 kts 286°
2026-04-20 19:43 -32.26804 117.25813 23484 ft 348 kts 286°
2026-04-20 19:44 -32.26139 117.23076 22813 ft 346 kts 286°
2026-04-20 19:44 -32.25479 117.20359 22205 ft 342 kts 286°
2026-04-20 19:44 -32.24825 117.17673 21652 ft 339 kts 286°
2026-04-20 19:44 -32.24176 117.15013 21094 ft 335 kts 285°
2026-04-20 19:45 -32.23534 117.12378 20549 ft 332 kts 285°
2026-04-20 19:45 -32.22898 117.09771 20010 ft 329 kts 285°
2026-04-20 19:45 -32.22265 117.07182 19472 ft 326 kts 285°
2026-04-20 19:45 -32.21648 117.04656 18967 ft 323 kts 285°
2026-04-20 19:46 -32.21028 117.02123 18433 ft 320 kts 285°
2026-04-20 19:46 -32.20410 116.99599 17882 ft 318 kts 285°
2026-04-20 19:46 -32.19799 116.97105 17290 ft 315 kts 285°
2026-04-20 19:46 -32.19194 116.94639 16822 ft 311 kts 285°
2026-04-20 19:47 -32.18595 116.92205 16316 ft 307 kts 285°
2026-04-20 19:47 -32.17846 116.89869 15823 ft 304 kts 294°
2026-04-20 19:47 -32.16669 116.87790 15354 ft 305 kts 302°
2026-04-20 19:47 -32.15357 116.85826 14884 ft 305 kts 301°
2026-04-20 19:48 -32.14029 116.83854 14400 ft 309 kts 301°
2026-04-20 19:48 -32.12679 116.81840 13898 ft 317 kts 301°
2026-04-20 19:48 -32.11303 116.79782 13354 ft 320 kts 301°
2026-04-20 19:48 -32.09930 116.77722 12826 ft 318 kts 302°
2026-04-20 19:49 -32.08573 116.75687 12342 ft 313 kts 302°
2026-04-20 19:49 -32.07238 116.73681 11850 ft 309 kts 302°
2026-04-20 19:49 -32.05941 116.71729 11413 ft 304 kts 303°
2026-04-20 19:49 -32.04645 116.69777 10977 ft 301 kts 303°
2026-04-20 19:50 -32.03385 116.67883 10841 ft 287 kts 303°
2026-04-20 19:50 -32.02180 116.66076 10680 ft 274 kts 303°
2026-04-20 19:50 -32.01030 116.64348 10565 ft 261 kts 303°
2026-04-20 19:50 -31.99937 116.62706 10455 ft 249 kts 303°
2026-04-20 19:51 -31.98896 116.61143 10370 ft 236 kts 303°
2026-04-20 19:51 -31.97907 116.59658 10278 ft 224 kts 303°
2026-04-20 19:51 -31.96971 116.58255 10197 ft 211 kts 303°
2026-04-20 19:51 -31.96083 116.56924 10099 ft 205 kts 303°
2026-04-20 19:52 -31.95173 116.55555 10042 ft 221 kts 303°
2026-04-20 19:52 -31.94235 116.54063 9956 ft 230 kts 298°
2026-04-20 19:52 -31.93438 116.52448 9747 ft 228 kts 296°
2026-04-20 19:52 -31.92623 116.50791 9023 ft 240 kts 297°
2026-04-20 19:53 -31.91726 116.49088 8301 ft 248 kts 299°
2026-04-20 19:53 -31.90762 116.47400 7910 ft 246 kts 300°
2026-04-20 19:53 -31.89806 116.45791 7816 ft 234 kts 299°
2026-04-20 19:53 -31.88941 116.44215 7621 ft 225 kts 296°
2026-04-20 19:54 -31.88156 116.42652 7393 ft 220 kts 295°
2026-04-20 19:54 -31.87411 116.41074 6974 ft 222 kts 293°
2026-04-20 19:54 -31.86677 116.39461 6582 ft 223 kts 292°
2026-04-20 19:54 -31.85934 116.37868 6246 ft 221 kts 293°
2026-04-20 19:55 -31.85168 116.36305 5906 ft 220 kts 294°
2026-04-20 19:55 -31.84381 116.34762 5528 ft 220 kts 295°
2026-04-20 19:55 -31.83561 116.33249 5213 ft 218 kts 296°
2026-04-20 19:55 -31.82737 116.31761 4880 ft 217 kts 295°
2026-04-20 19:56 -31.81908 116.30285 4536 ft 215 kts 295°
2026-04-20 19:56 -31.81082 116.28823 4236 ft 213 kts 295°
2026-04-20 19:56 -31.80281 116.27406 4170 ft 205 kts 295°
2026-04-20 19:56 -31.79540 116.25934 4357 ft 220 kts 286°
2026-04-20 19:57 -31.79143 116.24166 4068 ft 227 kts 271°
2026-04-20 19:57 -31.79283 116.22320 3918 ft 228 kts 250°
2026-04-20 19:57 -31.80059 116.20614 4224 ft 250 kts 238°
2026-04-20 19:57 -31.80922 116.18952 4774 ft 225 kts 240°
2026-04-20 19:58 -31.81753 116.17380 4243 ft 230 kts 235°
2026-04-20 19:58 -31.82789 116.15943 4017 ft 223 kts 229°
2026-04-20 19:58 -31.83812 116.14690 4042 ft 209 kts 228°
2026-04-20 19:58 -31.84826 116.13442 3352 ft 214 kts 230°
2026-04-20 19:59 -31.85753 116.12108 2702 ft 211 kts 234°
2026-04-20 19:59 -31.86563 116.10745 2471 ft 189 kts 238°
2026-04-20 19:59 -31.87215 116.09443 2093 ft 184 kts 243°
2026-04-20 19:59 -31.87805 116.08180 1994 ft 168 kts 241°
2026-04-20 20:00 -31.88361 116.07034 1872 ft 159 kts 240°
2026-04-20 20:00 -31.88970 116.05959 1631 ft 151 kts 238°
2026-04-20 20:00 -31.89476 116.04917 1427 ft 147 kts 243°
2026-04-20 20:00 -31.89939 116.03935 1303 ft 130 kts 239°
2026-04-20 20:01 -31.90437 116.03072 1035 ft 119 kts 240°
2026-04-20 20:01 -31.90845 116.02216 824 ft 122 kts 239°
2026-04-20 20:01 -31.91312 116.01385 681 ft 123 kts 238°
2026-04-20 20:01 -31.91772 116.00466 625 ft 134 kts 239°
2026-04-20 20:02 -31.92252 115.99521 425 ft 135 kts 236°
2026-04-20 20:02 -31.92720 115.98607 239 ft 124 kts 238°
2026-04-20 20:02 -31.93155 115.97753 98 ft 123 kts 237°
2026-04-20 20:02 -31.93572 115.96950 58 ft 99 kts 238°
2026-04-20 20:03 -31.93838 115.96435 57 ft 43 kts 239°
2026-04-20 20:03 -31.93951 115.96218 58 ft 29 kts 238°
2026-04-20 20:03 -31.94044 115.96037 57 ft 15 kts 239°
2026-04-20 20:03 -31.94092 115.95968 53 ft 10 kts 195°
2026-04-20 20:04 -31.94160 115.95982 56 ft 10 kts 154°
2026-04-20 20:04 -31.94222 115.96025 55 ft 10 kts 146°
2026-04-20 20:04 -31.94281 115.96072 55 ft 10 kts 146°
2026-04-20 20:04 -31.94342 115.96114 58 ft 10 kts 153°
2026-04-20 20:05 -31.94399 115.96167 55 ft 11 kts 122°
2026-04-20 20:05 -31.94420 115.96252 55 ft 11 kts 102°
2026-04-20 20:05 -31.94436 115.96339 58 ft 12 kts 103°
2026-04-20 20:05 -31.94463 115.96471 56 ft 18 kts 105°
2026-04-20 20:06 -31.94497 115.96607 54 ft 13 kts 105°
2026-04-20 20:06 -31.94510 115.96669 57 ft 7 kts 98°
2026-04-20 20:06 -31.94449 115.96732 57 ft 16 kts 18°
2026-04-20 20:06 -31.94345 115.96766 61 ft 16 kts 16°
2026-04-20 20:07 -31.94240 115.96798 60 ft 16 kts 14°
2026-04-20 20:07 -31.94135 115.96829 60 ft 16 kts 14°
2026-04-20 20:07 -31.94031 115.96859 59 ft 13 kts 13°
2026-04-20 20:07 -31.93952 115.96881 59 ft 8 kts 13°
2026-04-20 20:08 -31.93915 115.96926 56 ft 9 kts 79°
2026-04-20 20:08 -31.93926 115.96998 59 ft 9 kts 105°
2026-04-20 20:08 -31.93947 115.97091 56 ft 16 kts 104°
2026-04-20 20:08 -31.93966 115.97207 60 ft 4 kts 97°
2026-04-20 20:09 -31.93975 115.97239 56 ft 4 kts 116°
2026-04-20 20:09 -31.93994 115.97274 66 ft 5 kts 130°
2026-04-20 20:09 -31.94024 115.97301 58 ft 5 kts 148°
2026-04-20 20:09 -31.94038 115.97310 62 ft 1 kts 150°
2026-04-20 20:10 -31.94046 115.97316 59 ft 0 kts 150°
2026-04-20 20:10 -31.94045 115.97315 59 ft 0 kts 150°